#timestamp,LO_Frequency,Hit,StdDev 
1565283615.9,286047002.4,N
1565283635.7,286047000.1,N
1565283655.5,286047000.0,N
1565283675.4,286046999.7,N
1565283695.2,286047000.9,N
1565283715.1,286047000.3,N
1565283716.0,286047000.3,N
1565283735.8,286047000.5,N
1565283755.6,286046998.2,N
1565283775.5,286046998.5,N
1565283795.3,286046998.3,N
1565283815.1,286047001.1,N
1565283835.9,286046998.6,N
1565283855.7,286047000.7,N
1565283875.6,286046998.4,N
1565283895.4,286046998.5,N
1565283915.2,286047000.5,N
1565283935.1,286047000.0,N
1565283936.0,286047000.0,N
1565283955.8,286047002.7,N
1565283975.7,286047001.4,N
1565283995.5,286047004.1,Y
1565284015.3,286047001.8,P
1565284035.2,286047004.0,P
1565284055.0,286047002.1,N
1565284055.9,286047002.1,N
1565284075.7,286047002.1,N
1565284095.6,286047002.4,N
1565284115.4,286046999.7,N
1565284135.3,286047002.6,N
1565284155.1,286047002.1,N
1565284156.0,286047002.1,N
1565284175.8,286047001.5,N
1565284195.7,286047001.7,N
1565284215.5,286047002.2,N
1565284235.4,286047001.8,N
1565284255.2,286047002.1,N
1565284275.0,286047002.0,N
1565284275.9,286047002.0,N
1565284295.8,286047004.3,Y
1565284315.6,286047000.3,P
1565284335.4,286047001.0,N
1565284355.3,286047000.8,N
1565284375.1,286047000.6,N
1565284395.9,286046999.8,N
1565284415.7,286047000.3,N
1565284435.5,286046999.8,N
1565284455.4,286047000.8,N
1565284475.2,286046998.5,N
1565284495.0,286047001.0,N
1565284496.0,286047001.0,N
1565284515.8,286046998.1,N
1565284535.6,286047000.0,N
1565284555.5,286047000.0,N
1565284575.3,286047002.2,N
1565284595.1,286046999.7,N
1565284615.9,286047000.1,N
1565284635.7,286047000.0,N
1565284655.6,286047002.8,N
1565284675.4,286047000.1,N
1565284695.2,286047001.0,N
1565284715.1,286047001.0,N
1565284716.0,286047001.0,N
1565284735.8,286047000.0,N
1565284755.6,286047002.7,N
1565284775.5,286046999.9,N
1565284795.3,286047002.3,N
1565284815.2,286047000.2,N
1565284835.9,286047000.3,N
1565284855.7,286047000.4,N
1565284875.6,286047000.4,N
1565284895.4,286046999.7,N
1565284915.2,286047000.1,N
1565284935.1,286047002.4,N
1565284936.0,286047002.4,N
1565284955.8,286047002.1,N
1565284975.7,286047001.5,N
1565284995.5,286047004.4,Y
1565285015.3,286047002.5,P
1565285035.2,286047002.3,N
1565285055.0,286047000.2,N
1565285055.9,286047000.2,N
1565285075.8,286047002.7,N
1565285095.6,286047002.7,N
1565285115.4,286046999.7,N
1565285135.3,286047002.6,N
1565285155.1,286047000.1,N
1565285175.9,286047002.4,N
1565285195.7,286047002.4,N
1565285215.5,286047000.2,N
1565285235.4,286047000.8,N
1565285255.2,286047000.8,N
1565285275.0,286047001.1,N
1565285275.9,286047001.1,N
1565285295.8,286047001.1,N
1565285315.6,286046998.6,N
1565285335.5,286046998.3,N
1565285355.3,286047000.6,N
1565285375.1,286047000.5,N
1565285395.9,286047000.5,N
1565285415.7,286047000.2,N
1565285435.5,286047000.5,N
1565285455.4,286047000.6,N
1565285475.2,286047000.7,N
1565285495.1,286047000.6,N
1565285496.0,286047000.6,N
1565285515.8,286047000.0,N
1565285535.6,286047000.5,N
1565285555.5,286047000.1,N
1565285575.3,286047001.1,N
1565285595.2,286047001.0,N
1565285615.9,286047000.9,N
1565285635.7,286047002.4,N
1565285655.6,286046999.7,N
1565285675.4,286047000.7,N
1565285695.2,286046998.8,N
1565285715.1,286046999.1,N
1565285716.0,286046999.1,N
1565285735.8,286046998.6,N
1565285755.7,286046999.2,N
1565285775.5,286046996.6,Y
1565285795.3,286046996.9,P
1565285815.2,286046997.2,N
1565285835.0,286046996.6,N
1565285835.9,286046996.6,N
1565285855.8,286046997.7,N
1565285875.6,286046997.3,N
1565285895.4,286046997.1,N
1565285915.3,286046997.1,N
1565285935.1,286046996.7,Y
1565285955.8,286046998.2,P
1565285975.7,286047001.0,N
1565285995.5,286047001.0,N
1565286015.4,286047000.8,N
1565286035.2,286046998.8,N
1565286055.0,286046996.5,N
1565286055.9,286046996.5,N
1565286075.8,286046999.4,N
1565286095.6,286046998.7,N
1565286115.5,286046998.6,N
1565286135.3,286046998.4,N
1565286155.1,286046999.0,N
1565286175.9,286046999.3,N
1565286195.7,286046999.1,N
1565286215.5,286046999.0,N
1565286235.4,286046998.8,N
1565286255.2,286046998.9,N
1565286275.1,286046999.4,N
1565286276.0,286046999.4,N
1565286295.8,286046998.3,N
1565286315.6,286046998.6,N
1565286335.5,286046998.7,N
1565286355.3,286046999.4,N
1565286375.1,286046999.0,N
1565286395.9,286046998.4,N
1565286415.7,286046998.5,N
1565286435.6,286046998.1,N
1565286455.4,286047001.0,N
1565286475.2,286047000.7,N
1565286495.1,286047000.3,N
1565286496.0,286047000.3,N
1565286515.8,286046999.9,N
1565286535.7,286047002.5,N
1565286555.5,286047002.3,N
1565286575.3,286047002.3,N
1565286595.2,286046999.8,N
1565286615.0,286047001.2,N
1565286615.9,286047001.2,N
1565286635.8,286047001.0,N
1565286655.6,286047000.6,N
1565286675.4,286047000.4,N
1565286695.3,286047000.2,N
1565286715.1,286047000.3,N
1565286735.8,286047000.1,N
1565286755.7,286047000.4,N
1565286775.5,286047002.8,N
1565286795.4,286047002.5,N
1565286815.2,286047002.8,N
1565286835.0,286047002.3,N
1565286835.9,286047002.3,N
1565286855.8,286047002.5,N
1565286875.6,286047000.4,N
1565286895.5,286047000.1,N
1565286915.3,286047001.0,N
1565286935.1,286047000.7,N
1565286955.9,286047000.4,N
1565286975.7,286047001.0,N
1565286995.5,286047001.1,N
1565287015.4,286047000.5,N
1565287035.2,286047000.7,N
1565287055.1,286047000.5,N
1565287056.0,286047000.5,N
1565287075.8,286047000.6,N
1565287095.6,286047000.3,N
1565287115.5,286047002.4,N
1565287135.3,286047000.2,N
1565287155.2,286047002.6,N
1565287175.9,286047002.6,N
1565287195.7,286047002.2,N
